EZY2830 LGSK-EGGD

Flight info

Callsign EZY2830
Flight time 3h 36m
Altitude 36000
Route IBIDI UL617 MAKED DCT LONTA UL608 DOLEV DCT PODOB DCT BOSNA DCT OKSIG DCT KOMAR DCT KUSIB DCT GORPA DCT ERKIR L608 KPT/N0437F380 L608 LIRSU DCT SPI DCT BUB L608 DENUT L610 KOPUL Q63 ICTAM L179 SAWPE
Aircraft A320/M-SDE3FGHIRWY/LB1

Departure

Time 2026-04-26 13:33
Airport Skiathos Island National Airport (LGSK)

Arrival

Time 2026-04-26 17:09
Airport Bristol Airport (EGGD)
Time Latitude Longitude Altitude Speed Heading
2026-04-26 12:57 39.17837 23.50206 40 ft 0 kts 289°
2026-04-26 13:25 39.17835 23.50216 36 ft 4 kts 287°
2026-04-26 13:25 39.17828 23.50249 39 ft 4 kts 276°
2026-04-26 13:25 39.17828 23.50282 39 ft 4 kts 252°
2026-04-26 13:25 39.17840 23.50304 39 ft 2 kts 199°
2026-04-26 13:26 39.17841 23.50305 39 ft 0 kts 199°
2026-04-26 13:28 39.17824 23.50297 39 ft 7 kts 199°
2026-04-26 13:28 39.17784 23.50280 39 ft 5 kts 199°
2026-04-26 13:28 39.17754 23.50266 39 ft 4 kts 199°
2026-04-26 13:28 39.17723 23.50260 39 ft 8 kts 175°
2026-04-26 13:29 39.17701 23.50290 40 ft 0 kts 105°
2026-04-26 13:29 39.17694 23.50323 40 ft 6 kts 108°
2026-04-26 13:29 39.17666 23.50341 41 ft 6 kts 168°
2026-04-26 13:30 39.17612 23.50322 41 ft 11 kts 200°
2026-04-26 13:30 39.17519 23.50278 40 ft 17 kts 200°
2026-04-26 13:30 39.17399 23.50223 36 ft 20 kts 199°
2026-04-26 13:30 39.17260 23.50162 28 ft 18 kts 199°
2026-04-26 13:31 39.17142 23.50111 21 ft 15 kts 198°
2026-04-26 13:31 39.17074 23.50072 17 ft 10 kts 217°
2026-04-26 13:31 39.17016 23.50065 10 ft 9 kts 95°
2026-04-26 13:31 39.17037 23.50079 13 ft 0 kts
2026-04-26 13:32 39.17055 23.50080 15 ft 7 kts
2026-04-26 13:32 39.17068 23.50086 17 ft 0 kts 20°
2026-04-26 13:33 39.17071 23.50088 17 ft 7 kts 20°
2026-04-26 13:33 39.17395 23.50226 36 ft 89 kts 18°
2026-04-26 13:33 39.18213 23.50583 91 ft 152 kts 19°
2026-04-26 13:33 39.19215 23.51015 843 ft 151 kts 18°
2026-04-26 13:34 39.20219 23.51461 1511 ft 155 kts 19°
2026-04-26 13:34 39.21344 23.51720 1781 ft 177 kts 359°
2026-04-26 13:34 39.22630 23.51652 2151 ft 190 kts 355°
2026-04-26 13:34 39.23506 23.51577 2542 ft 191 kts 355°
2026-04-26 13:35 39.25347 23.51411 3078 ft 211 kts 355°
2026-04-26 13:35 39.26896 23.51276 3347 ft 236 kts 355°
2026-04-26 13:35 39.28619 23.51136 3773 ft 258 kts 355°
2026-04-26 13:35 39.30438 23.50995 4515 ft 265 kts 355°
2026-04-26 13:36 39.32269 23.50859 5357 ft 269 kts 355°
2026-04-26 13:36 39.34144 23.50724 6230 ft 272 kts 355°
2026-04-26 13:36 39.36044 23.50590 7060 ft 275 kts 355°
2026-04-26 13:36 39.37965 23.50453 7873 ft 278 kts 355°
2026-04-26 13:37 39.39912 23.50316 8674 ft 282 kts 355°
2026-04-26 13:37 39.41866 23.50034 9449 ft 284 kts 345°
2026-04-26 13:37 39.43749 23.49225 10221 ft 287 kts 338°
2026-04-26 13:37 39.45687 23.48279 10512 ft 309 kts 338°
2026-04-26 13:38 39.47768 23.47265 10873 ft 326 kts 338°
2026-04-26 13:38 39.49913 23.46224 11541 ft 332 kts 339°
2026-04-26 13:38 39.52086 23.45170 12251 ft 335 kts 339°
2026-04-26 13:38 39.54278 23.44108 12957 ft 338 kts 339°
2026-04-26 13:39 39.56491 23.43036 13640 ft 341 kts 339°
2026-04-26 13:39 39.58723 23.41952 14321 ft 343 kts 339°
2026-04-26 13:39 39.60967 23.40859 14964 ft 346 kts 339°
2026-04-26 13:39 39.63227 23.39755 15598 ft 349 kts 339°
2026-04-26 13:40 39.65508 23.38645 16215 ft 351 kts 339°
2026-04-26 13:40 39.67805 23.37530 16828 ft 354 kts 339°
2026-04-26 13:40 39.70117 23.36408 17432 ft 356 kts 339°
2026-04-26 13:40 39.72443 23.35273 17990 ft 359 kts 339°
2026-04-26 13:41 39.74785 23.34128 18566 ft 361 kts 339°
2026-04-26 13:41 39.77143 23.32977 19100 ft 365 kts 339°
2026-04-26 13:41 39.79528 23.31813 19647 ft 367 kts 339°
2026-04-26 13:41 39.81926 23.30640 20165 ft 370 kts 339°
2026-04-26 13:42 39.84345 23.29458 20649 ft 372 kts 339°
2026-04-26 13:42 39.86775 23.28265 21122 ft 375 kts 339°
2026-04-26 13:42 39.89224 23.27062 21576 ft 378 kts 339°
2026-04-26 13:42 39.91691 23.25851 22023 ft 380 kts 339°
2026-04-26 13:43 39.94172 23.24630 22461 ft 383 kts 339°
2026-04-26 13:43 39.96679 23.23396 22890 ft 386 kts 339°
2026-04-26 13:43 39.99195 23.22155 23319 ft 388 kts 339°
2026-04-26 13:43 40.01731 23.20906 23739 ft 391 kts 339°
2026-04-26 13:44 40.04275 23.19656 24147 ft 393 kts 338°
2026-04-26 13:44 40.06806 23.18408 24527 ft 395 kts 338°
2026-04-26 13:44 40.09390 23.17132 24927 ft 397 kts 338°
2026-04-26 13:44 40.11978 23.15851 25319 ft 399 kts 338°
2026-04-26 13:45 40.14578 23.14563 25701 ft 401 kts 338°
2026-04-26 13:45 40.17189 23.13268 26061 ft 402 kts 338°
2026-04-26 13:45 40.19812 23.11969 26398 ft 404 kts 338°
2026-04-26 13:45 40.22444 23.10663 26741 ft 406 kts 338°
2026-04-26 13:46 40.25088 23.09353 27071 ft 407 kts 338°
2026-04-26 13:46 40.27744 23.08035 27408 ft 409 kts 338°
2026-04-26 13:46 40.30416 23.06711 27747 ft 411 kts 338°
2026-04-26 13:46 40.33094 23.05383 28077 ft 413 kts 338°
2026-04-26 13:47 40.35792 23.04041 28408 ft 415 kts 338°
2026-04-26 13:47 40.37576 23.03153 28628 ft 415 kts 338°
2026-04-26 13:47 40.40284 23.01805 28961 ft 417 kts 338°
2026-04-26 13:47 40.42998 23.00450 29260 ft 418 kts 337°
2026-04-26 13:48 40.45708 22.99047 29548 ft 419 kts 333°
2026-04-26 13:48 40.48303 22.97290 29831 ft 420 kts 330°
2026-04-26 13:48 40.50883 22.95484 30115 ft 421 kts 330°
2026-04-26 13:48 40.53473 22.93670 30377 ft 423 kts 330°
2026-04-26 13:49 40.56072 22.91850 30606 ft 424 kts 330°
2026-04-26 13:49 40.58686 22.90022 30869 ft 426 kts 330°
2026-04-26 13:49 40.61303 22.88190 31139 ft 427 kts 330°
2026-04-26 13:49 40.63917 22.86359 31515 ft 425 kts 330°
2026-04-26 13:50 40.66519 22.84531 31863 ft 424 kts 330°
2026-04-26 13:50 40.69120 22.82704 32187 ft 423 kts 330°
2026-04-26 13:50 40.71714 22.80883 32528 ft 422 kts 330°
2026-04-26 13:50 40.74298 22.79062 32861 ft 421 kts 330°
2026-04-26 13:51 40.76875 22.77243 33178 ft 420 kts 330°
2026-04-26 13:51 40.79446 22.75425 33485 ft 419 kts 330°
2026-04-26 13:51 40.82015 22.73611 33813 ft 418 kts 330°
2026-04-26 13:51 40.84571 22.71805 34139 ft 416 kts 330°
2026-04-26 13:52 40.87121 22.70004 34440 ft 416 kts 329°
2026-04-26 13:52 40.89671 22.68198 34709 ft 415 kts 330°
2026-04-26 13:52 40.92212 22.66403 34966 ft 414 kts 329°
2026-04-26 13:52 40.94750 22.64608 35196 ft 414 kts 329°
2026-04-26 13:53 40.97287 22.62808 35426 ft 414 kts 329°
2026-04-26 13:53 40.99822 22.61003 35644 ft 413 kts 329°
2026-04-26 13:53 41.02351 22.59200 35837 ft 413 kts 329°
2026-04-26 13:53 41.04880 22.57397 36005 ft 413 kts 329°
2026-04-26 13:54 41.07403 22.55602 36058 ft 411 kts 329°
2026-04-26 13:54 41.12406 22.52000 36057 ft 407 kts 325°
2026-04-26 13:55 41.18331 22.45914 36048 ft 405 kts 319°
2026-04-26 13:56 41.25650 22.38097 36055 ft 404 kts 319°
2026-04-26 13:56 41.30020 22.33413 36033 ft 404 kts 319°
2026-04-26 13:57 41.34366 22.28755 36048 ft 404 kts 319°
2026-04-26 13:57 41.38736 22.24058 36054 ft 404 kts 319°
2026-04-26 13:58 41.43110 22.19354 36059 ft 404 kts 319°
2026-04-26 13:58 41.47480 22.14647 36064 ft 404 kts 319°
2026-04-26 13:59 41.51848 22.09929 36056 ft 404 kts 319°
2026-04-26 13:59 41.56207 22.05215 36059 ft 403 kts 319°
2026-04-26 14:00 41.64915 21.95785 36066 ft 403 kts 318°
2026-04-26 14:01 41.69261 21.91059 36069 ft 402 kts 318°
2026-04-26 14:01 41.73603 21.86324 36064 ft 403 kts 318°
2026-04-26 14:02 41.77944 21.81577 36063 ft 403 kts 318°
2026-04-26 14:02 41.82281 21.76832 36067 ft 402 kts 318°
2026-04-26 14:03 41.86615 21.72088 36064 ft 402 kts 318°
2026-04-26 14:03 41.90948 21.67339 36065 ft 402 kts 318°
2026-04-26 14:04 41.95280 21.62570 36064 ft 402 kts 318°
2026-04-26 14:04 41.99605 21.57800 36061 ft 402 kts 318°
2026-04-26 14:05 42.03925 21.53028 36057 ft 402 kts 318°
2026-04-26 14:05 42.08223 21.48281 36060 ft 402 kts 318°
2026-04-26 14:06 42.12571 21.43468 36056 ft 402 kts 318°
2026-04-26 14:06 42.16742 21.38481 36048 ft 400 kts 309°
2026-04-26 14:07 42.20320 21.32806 36049 ft 400 kts 309°
2026-04-26 14:07 42.23923 21.27088 36051 ft 400 kts 309°
2026-04-26 14:08 42.27538 21.21354 36063 ft 401 kts 309°
2026-04-26 14:08 42.31151 21.15606 36060 ft 402 kts 309°
2026-04-26 14:09 42.34760 21.09842 36070 ft 402 kts 309°
2026-04-26 14:09 42.38368 21.04070 36074 ft 402 kts 309°
2026-04-26 14:10 42.41978 20.98290 36069 ft 402 kts 309°
2026-04-26 14:10 42.45582 20.92507 36064 ft 402 kts 309°
2026-04-26 14:11 42.50994 20.83806 36074 ft 403 kts 309°
2026-04-26 14:11 42.54603 20.77983 36073 ft 403 kts 309°
2026-04-26 14:12 42.58209 20.72156 36072 ft 403 kts 309°
2026-04-26 14:12 42.61819 20.66318 36072 ft 404 kts 309°
2026-04-26 14:13 42.67224 20.57543 36073 ft 404 kts 309°
2026-04-26 14:14 42.70822 20.51681 36072 ft 404 kts 309°
2026-04-26 14:14 42.74432 20.45806 36074 ft 405 kts 309°
2026-04-26 14:15 42.78040 20.39921 36083 ft 405 kts 309°
2026-04-26 14:15 42.81640 20.34019 36085 ft 405 kts 309°
2026-04-26 14:16 42.85234 20.28122 36086 ft 404 kts 309°
2026-04-26 14:16 42.88828 20.22233 36077 ft 404 kts 309°
2026-04-26 14:17 42.92412 20.16341 36080 ft 404 kts 309°
2026-04-26 14:17 42.95994 20.10426 36074 ft 404 kts 309°
2026-04-26 14:18 42.99575 20.04494 36074 ft 405 kts 308°
2026-04-26 14:18 43.03130 19.98599 36099 ft 405 kts 309°
2026-04-26 14:19 43.06721 19.92651 36081 ft 406 kts 309°
2026-04-26 14:19 43.10303 19.86689 36076 ft 406 kts 308°
2026-04-26 14:20 43.13891 19.80695 36067 ft 407 kts 309°
2026-04-26 14:20 43.17486 19.74701 36066 ft 408 kts 309°
2026-04-26 14:21 43.21082 19.68689 36077 ft 408 kts 308°
2026-04-26 14:21 43.24676 19.62662 36087 ft 408 kts 309°
2026-04-26 14:22 43.28269 19.56623 36089 ft 408 kts 308°
2026-04-26 14:22 43.31859 19.50588 36089 ft 408 kts 309°
2026-04-26 14:23 43.35448 19.44538 36085 ft 408 kts 308°
2026-04-26 14:23 43.39022 19.38488 36087 ft 408 kts 308°
2026-04-26 14:24 43.42596 19.32436 36079 ft 407 kts 308°
2026-04-26 14:24 43.46166 19.26376 36075 ft 408 kts 308°
2026-04-26 14:25 43.49737 19.20304 36076 ft 408 kts 308°
2026-04-26 14:25 43.53284 19.14254 36080 ft 409 kts 308°
2026-04-26 14:26 43.56956 19.08207 36082 ft 409 kts 310°
2026-04-26 14:26 43.60677 19.02273 36083 ft 409 kts 310°
2026-04-26 14:27 43.64389 18.96323 36079 ft 409 kts 310°
2026-04-26 14:27 43.68068 18.90353 36079 ft 408 kts 309°
2026-04-26 14:28 43.71743 18.84363 36080 ft 409 kts 309°
2026-04-26 14:28 43.75429 18.78355 36089 ft 410 kts 309°
2026-04-26 14:29 43.79114 18.72345 36086 ft 410 kts 309°
2026-04-26 14:29 43.82770 18.66361 36095 ft 410 kts 309°
2026-04-26 14:30 43.86442 18.60334 36099 ft 410 kts 309°
2026-04-26 14:30 43.90119 18.54289 36097 ft 410 kts 309°
2026-04-26 14:31 43.93792 18.48227 36101 ft 411 kts 309°
2026-04-26 14:31 43.97468 18.42155 36098 ft 411 kts 309°
2026-04-26 14:32 44.01151 18.36073 36100 ft 411 kts 309°
2026-04-26 14:32 44.04828 18.29980 36099 ft 412 kts 309°
2026-04-26 14:33 44.08508 18.23868 36104 ft 412 kts 309°
2026-04-26 14:33 44.12182 18.17748 36102 ft 412 kts 309°
2026-04-26 14:34 44.15233 18.12649 36101 ft 412 kts 309°
2026-04-26 14:34 44.18904 18.06511 36108 ft 412 kts 309°
2026-04-26 14:35 44.22569 18.00360 36108 ft 413 kts 309°
2026-04-26 14:35 44.26243 17.94198 36110 ft 413 kts 309°
2026-04-26 14:36 44.29913 17.88047 36109 ft 412 kts 309°
2026-04-26 14:36 44.33579 17.81884 36114 ft 412 kts 309°
2026-04-26 14:37 44.37224 17.75707 36120 ft 412 kts 309°
2026-04-26 14:37 44.40945 17.69610 36118 ft 412 kts 310°
2026-04-26 14:38 44.44738 17.63603 36115 ft 412 kts 310°
2026-04-26 14:38 44.48527 17.57575 36122 ft 412 kts 310°
2026-04-26 14:39 44.52261 17.51561 36127 ft 412 kts 310°
2026-04-26 14:39 44.56007 17.45485 36127 ft 412 kts 310°
2026-04-26 14:40 44.59750 17.39417 36118 ft 411 kts 310°
2026-04-26 14:40 44.63492 17.33347 36118 ft 411 kts 310°
2026-04-26 14:41 44.67236 17.27272 36118 ft 412 kts 310°
2026-04-26 14:41 44.70970 17.21182 36123 ft 411 kts 310°
2026-04-26 14:42 44.74697 17.15070 36129 ft 412 kts 310°
2026-04-26 14:42 44.78415 17.08976 36121 ft 411 kts 310°
2026-04-26 14:43 44.82138 17.02864 36123 ft 411 kts 310°
2026-04-26 14:43 44.85871 16.96723 36118 ft 413 kts 310°
2026-04-26 14:44 44.89614 16.90593 36118 ft 413 kts 310°
2026-04-26 14:44 44.93352 16.84462 36128 ft 412 kts 310°
2026-04-26 14:45 44.97070 16.78318 36130 ft 412 kts 309°
2026-04-26 14:45 45.00683 16.72051 36135 ft 410 kts 308°
2026-04-26 14:46 45.04221 16.65779 36124 ft 411 kts 308°
2026-04-26 14:46 45.07821 16.59423 36122 ft 412 kts 308°
2026-04-26 14:47 45.11399 16.53152 36126 ft 412 kts 308°
2026-04-26 14:47 45.14999 16.46839 36129 ft 412 kts 308°
2026-04-26 14:48 45.18600 16.40520 36130 ft 412 kts 308°
2026-04-26 14:48 45.22190 16.34199 36126 ft 412 kts 308°
2026-04-26 14:49 45.25782 16.27859 36128 ft 412 kts 308°
2026-04-26 14:49 45.29369 16.21516 36123 ft 412 kts 308°
2026-04-26 14:50 45.32950 16.15169 36128 ft 412 kts 308°
2026-04-26 14:50 45.36530 16.08807 36128 ft 412 kts 308°
2026-04-26 14:51 45.40109 16.02442 36137 ft 412 kts 308°
2026-04-26 14:51 45.43683 15.96061 36130 ft 412 kts 308°
2026-04-26 14:52 45.47249 15.89675 36126 ft 412 kts 308°
2026-04-26 14:52 45.50813 15.83283 36127 ft 412 kts 308°
2026-04-26 14:53 45.54384 15.76881 36133 ft 412 kts 308°
2026-04-26 14:53 45.57944 15.70479 36128 ft 412 kts 308°
2026-04-26 14:54 45.61497 15.64065 36133 ft 412 kts 307°
2026-04-26 14:54 45.65041 15.57637 36138 ft 412 kts 307°
2026-04-26 14:55 45.68585 15.51205 36130 ft 412 kts 308°
2026-04-26 14:55 45.72131 15.44765 36131 ft 412 kts 307°
2026-04-26 14:56 45.75647 15.38364 36124 ft 412 kts 307°
2026-04-26 14:56 45.79195 15.31913 36127 ft 412 kts 308°
2026-04-26 14:57 45.82785 15.25495 36124 ft 413 kts 308°
2026-04-26 14:57 45.86381 15.19087 36129 ft 412 kts 308°
2026-04-26 14:58 45.89968 15.12654 36129 ft 413 kts 308°
2026-04-26 14:58 45.93539 15.06208 36124 ft 413 kts 308°
2026-04-26 14:59 45.97111 14.99748 36124 ft 412 kts 308°
2026-04-26 14:59 46.00677 14.93293 36123 ft 412 kts 308°
2026-04-26 15:00 46.04240 14.86827 36126 ft 412 kts 308°
2026-04-26 15:00 46.07791 14.80371 36127 ft 411 kts 308°
2026-04-26 15:01 46.11340 14.73907 36120 ft 411 kts 307°
2026-04-26 15:01 46.14880 14.67435 36114 ft 411 kts 307°
2026-04-26 15:02 46.18422 14.60938 36120 ft 412 kts 307°
2026-04-26 15:02 46.21958 14.54433 36112 ft 411 kts 307°
2026-04-26 15:03 46.25463 14.47982 36110 ft 411 kts 307°
2026-04-26 15:03 46.28992 14.41481 36104 ft 411 kts 307°
2026-04-26 15:04 46.32519 14.34963 36099 ft 412 kts 307°
2026-04-26 15:04 46.36036 14.28427 36099 ft 412 kts 307°
2026-04-26 15:05 46.39557 14.21890 36103 ft 412 kts 307°
2026-04-26 15:05 46.43085 14.15340 36105 ft 412 kts 307°
2026-04-26 15:06 46.46606 14.08778 36108 ft 412 kts 307°
2026-04-26 15:06 46.50118 14.02214 36110 ft 412 kts 307°
2026-04-26 15:07 46.55375 13.92351 36120 ft 412 kts 307°
2026-04-26 15:07 46.58875 13.85758 36120 ft 412 kts 307°
2026-04-26 15:08 46.62369 13.79160 36117 ft 411 kts 307°
2026-04-26 15:08 46.65859 13.72554 36120 ft 411 kts 307°
2026-04-26 15:09 46.69346 13.65946 36129 ft 412 kts 307°
2026-04-26 15:09 46.72833 13.59327 36131 ft 411 kts 307°
2026-04-26 15:10 46.75723 13.53829 36128 ft 411 kts 306°
2026-04-26 15:10 46.79787 13.46065 36147 ft 412 kts 306°
2026-04-26 15:11 46.83253 13.39419 36152 ft 411 kts 306°
2026-04-26 15:11 46.86709 13.32782 36165 ft 410 kts 306°
2026-04-26 15:12 46.90164 13.26154 36169 ft 409 kts 306°
2026-04-26 15:12 46.93582 13.19588 36168 ft 408 kts 306°
2026-04-26 15:13 46.97005 13.12964 36166 ft 408 kts 305°
2026-04-26 15:13 47.00426 13.06329 36167 ft 408 kts 306°
2026-04-26 15:14 47.03844 12.99701 36169 ft 408 kts 305°
2026-04-26 15:14 47.07256 12.93073 36169 ft 407 kts 305°
2026-04-26 15:15 47.10665 12.86420 36176 ft 408 kts 305°
2026-04-26 15:15 47.14071 12.79760 36175 ft 408 kts 305°
2026-04-26 15:16 47.17480 12.73085 36182 ft 408 kts 305°
2026-04-26 15:16 47.20882 12.66409 36197 ft 408 kts 305°
2026-04-26 15:17 47.23724 12.60814 36199 ft 407 kts 305°
2026-04-26 15:17 47.27661 12.53035 36199 ft 407 kts 305°
2026-04-26 15:18 47.31044 12.46335 36203 ft 408 kts 305°
2026-04-26 15:18 47.34424 12.39623 36207 ft 407 kts 304°
2026-04-26 15:19 47.37799 12.32904 36213 ft 408 kts 305°
2026-04-26 15:19 47.41173 12.26183 36216 ft 408 kts 304°
2026-04-26 15:20 47.44543 12.19449 36222 ft 408 kts 304°
2026-04-26 15:20 47.47911 12.12702 36224 ft 409 kts 304°
2026-04-26 15:21 47.51275 12.05933 36226 ft 408 kts 304°
2026-04-26 15:21 47.53975 11.98632 36224 ft 404 kts 287°
2026-04-26 15:22 47.55046 11.91932 36212 ft 403 kts 281°
2026-04-26 15:22 47.56181 11.83811 36200 ft 403 kts 281°
2026-04-26 15:23 47.57321 11.75706 36187 ft 402 kts 281°
2026-04-26 15:23 47.58449 11.67579 36184 ft 403 kts 281°
2026-04-26 15:24 47.59567 11.59434 36189 ft 404 kts 281°
2026-04-26 15:24 47.60683 11.51266 36186 ft 405 kts 281°
2026-04-26 15:25 47.61796 11.43097 36199 ft 405 kts 281°
2026-04-26 15:25 47.62883 11.34916 36205 ft 404 kts 280°
2026-04-26 15:26 47.63871 11.26724 36206 ft 403 kts 279°
2026-04-26 15:26 47.64833 11.18523 36206 ft 404 kts 279°
2026-04-26 15:27 47.65800 11.10414 36204 ft 403 kts 279°
2026-04-26 15:27 47.66787 11.02187 36206 ft 403 kts 279°
2026-04-26 15:28 47.67764 10.93996 36210 ft 404 kts 279°
2026-04-26 15:28 47.68739 10.85786 36211 ft 404 kts 279°
2026-04-26 15:29 47.69701 10.77592 36218 ft 403 kts 279°
2026-04-26 15:30 47.71594 10.61189 36224 ft 403 kts 279°
2026-04-26 15:30 47.72537 10.52991 36226 ft 403 kts 278°
2026-04-26 15:31 47.74035 10.40721 36226 ft 403 kts 285°
2026-04-26 15:32 47.77810 10.31181 36227 ft 411 kts 313°
2026-04-26 15:32 47.82929 10.24846 36226 ft 413 kts 317°
2026-04-26 15:33 47.87370 10.19432 36224 ft 413 kts 317°
2026-04-26 15:33 47.91800 10.13994 36228 ft 413 kts 317°
2026-04-26 15:34 47.96234 10.08545 36232 ft 413 kts 317°
2026-04-26 15:34 48.00671 10.03094 36238 ft 414 kts 317°
2026-04-26 15:35 48.05107 9.97634 36238 ft 414 kts 317°
2026-04-26 15:35 48.09541 9.92156 36238 ft 413 kts 317°
2026-04-26 15:36 48.13912 9.86737 36237 ft 413 kts 317°
2026-04-26 15:36 48.18341 9.81235 36240 ft 414 kts 317°
2026-04-26 15:37 48.22772 9.75734 36244 ft 413 kts 317°
2026-04-26 15:37 48.27195 9.70229 36241 ft 413 kts 317°
2026-04-26 15:38 48.31609 9.64708 36243 ft 413 kts 317°
2026-04-26 15:38 48.36018 9.59171 36243 ft 413 kts 316°
2026-04-26 15:39 48.40402 9.53571 36243 ft 413 kts 316°
2026-04-26 15:39 48.44030 9.48902 36244 ft 413 kts 316°
2026-04-26 15:40 48.49140 9.42329 36238 ft 413 kts 316°
2026-04-26 15:40 48.53516 9.36699 36250 ft 413 kts 316°
2026-04-26 15:41 48.57884 9.31044 36252 ft 414 kts 316°
2026-04-26 15:41 48.62426 9.25715 36255 ft 416 kts 327°
2026-04-26 15:42 48.67708 9.22030 36246 ft 418 kts 333°
2026-04-26 15:42 48.73051 9.18525 36247 ft 418 kts 333°
2026-04-26 15:43 48.78390 9.15003 36243 ft 419 kts 333°
2026-04-26 15:44 48.86383 9.09676 36232 ft 418 kts 333°
2026-04-26 15:44 48.94354 9.04254 36239 ft 418 kts 332°
2026-04-26 15:45 49.02269 8.98711 36244 ft 418 kts 332°
2026-04-26 15:46 49.10193 8.93173 36250 ft 417 kts 332°
2026-04-26 15:46 49.14587 8.90110 36245 ft 417 kts 333°
2026-04-26 15:47 49.23546 8.84616 36249 ft 419 kts 339°
2026-04-26 15:48 49.29111 8.81927 36251 ft 419 kts 339°
2026-04-26 15:48 49.34660 8.79229 36244 ft 418 kts 339°
2026-04-26 15:49 49.40201 8.76519 36240 ft 418 kts 339°
2026-04-26 15:49 49.45738 8.73807 36246 ft 417 kts 339°
2026-04-26 15:50 49.51268 8.71096 36254 ft 418 kts 339°
2026-04-26 15:50 49.56798 8.68363 36256 ft 417 kts 339°
2026-04-26 15:51 49.62320 8.65627 36259 ft 417 kts 339°
2026-04-26 15:51 49.67849 8.62879 36260 ft 417 kts 339°
2026-04-26 15:52 49.72992 8.58950 36260 ft 412 kts 321°
2026-04-26 15:52 49.77238 8.53060 36261 ft 410 kts 315°
2026-04-26 15:53 49.81393 8.47002 36267 ft 410 kts 315°
2026-04-26 15:53 49.84947 8.40169 36264 ft 408 kts 297°
2026-04-26 15:54 49.86973 8.31996 36265 ft 407 kts 288°
2026-04-26 15:54 49.88717 8.23703 36263 ft 407 kts 288°
2026-04-26 15:55 49.90483 8.15337 36267 ft 408 kts 288°
2026-04-26 15:55 49.92236 8.06968 36264 ft 408 kts 288°
2026-04-26 15:56 49.93974 7.98590 36264 ft 408 kts 288°
2026-04-26 15:56 49.95022 7.89947 36263 ft 409 kts 278°
2026-04-26 15:57 49.95716 7.81183 36261 ft 409 kts 278°
2026-04-26 15:57 49.96408 7.72418 36266 ft 409 kts 278°
2026-04-26 15:58 49.97100 7.63650 36268 ft 409 kts 277°
2026-04-26 15:58 49.97782 7.54863 36269 ft 410 kts 278°
2026-04-26 15:59 49.98465 7.46081 36271 ft 409 kts 278°
2026-04-26 15:59 49.99135 7.37282 36273 ft 410 kts 278°
2026-04-26 16:00 49.99794 7.28493 36272 ft 409 kts 277°
2026-04-26 16:00 50.00453 7.19711 36273 ft 409 kts 278°
2026-04-26 16:01 50.01104 7.10980 36276 ft 409 kts 278°
2026-04-26 16:01 50.01753 7.02133 36277 ft 409 kts 277°
2026-04-26 16:02 50.02470 6.93370 36272 ft 407 kts 284°
2026-04-26 16:02 50.04549 6.85235 36265 ft 406 kts 299°
2026-04-26 16:03 50.07284 6.77623 36258 ft 406 kts 299°
2026-04-26 16:03 50.10012 6.69922 36253 ft 406 kts 299°
2026-04-26 16:04 50.12736 6.62209 36246 ft 406 kts 299°
2026-04-26 16:04 50.15454 6.54497 36245 ft 406 kts 299°
2026-04-26 16:05 50.18174 6.46757 36249 ft 406 kts 299°
2026-04-26 16:05 50.21010 6.39153 36243 ft 405 kts 302°
2026-04-26 16:06 50.24045 6.31728 36249 ft 406 kts 303°
2026-04-26 16:06 50.27092 6.24301 36257 ft 406 kts 302°
2026-04-26 16:07 50.30086 6.16819 36258 ft 406 kts 302°
2026-04-26 16:07 50.33060 6.09288 36261 ft 407 kts 302°
2026-04-26 16:08 50.36033 6.01747 36267 ft 407 kts 302°
2026-04-26 16:08 50.39009 5.94214 36276 ft 407 kts 302°
2026-04-26 16:09 50.41979 5.86661 36290 ft 407 kts 302°
2026-04-26 16:09 50.44937 5.79105 36295 ft 406 kts 302°
2026-04-26 16:10 50.47891 5.71552 36300 ft 406 kts 302°
2026-04-26 16:10 50.50843 5.63996 36305 ft 405 kts 302°
2026-04-26 16:11 50.53251 5.57686 36301 ft 405 kts 300°
2026-04-26 16:11 50.56034 5.49993 36317 ft 405 kts 300°
2026-04-26 16:12 50.58783 5.42284 36323 ft 404 kts 300°
2026-04-26 16:12 50.62940 5.30731 36330 ft 404 kts 300°
2026-04-26 16:13 50.65712 5.23051 36323 ft 402 kts 300°
2026-04-26 16:13 50.68460 5.15384 36320 ft 402 kts 300°
2026-04-26 16:14 50.71200 5.07709 36323 ft 401 kts 300°
2026-04-26 16:15 50.75298 4.96197 36308 ft 401 kts 300°
2026-04-26 16:15 50.78028 4.88517 36322 ft 401 kts 300°
2026-04-26 16:16 50.82099 4.76993 36318 ft 400 kts 300°
2026-04-26 16:16 50.84810 4.69312 36334 ft 400 kts 300°
2026-04-26 16:17 50.87507 4.61640 36335 ft 399 kts 300°
2026-04-26 16:17 50.90184 4.53945 36330 ft 399 kts 300°
2026-04-26 16:18 50.94451 4.42649 36336 ft 398 kts 302°
2026-04-26 16:19 50.98828 4.31457 36340 ft 398 kts 302°
2026-04-26 16:20 51.03123 4.20202 36347 ft 397 kts 302°
2026-04-26 16:20 51.07398 4.08923 36349 ft 397 kts 301°
2026-04-26 16:21 51.10231 4.01446 36349 ft 397 kts 301°
2026-04-26 16:21 51.13072 3.93914 36353 ft 397 kts 301°
2026-04-26 16:22 51.15911 3.86376 36348 ft 396 kts 301°
2026-04-26 16:22 51.18733 3.78845 36343 ft 395 kts 301°
2026-04-26 16:23 51.21542 3.71300 36339 ft 395 kts 301°
2026-04-26 16:23 51.23895 3.63405 36339 ft 397 kts 287°
2026-04-26 16:24 51.25081 3.54796 36336 ft 397 kts 283°
2026-04-26 16:24 51.26222 3.46164 36348 ft 397 kts 283°
2026-04-26 16:25 51.27362 3.37533 36351 ft 397 kts 283°
2026-04-26 16:25 51.28478 3.28881 36356 ft 398 kts 283°
2026-04-26 16:26 51.29574 3.20224 36355 ft 398 kts 283°
2026-04-26 16:26 51.30673 3.11557 36358 ft 398 kts 283°
2026-04-26 16:27 51.31773 3.02891 36362 ft 398 kts 283°
2026-04-26 16:27 51.32873 2.94216 36365 ft 398 kts 283°
2026-04-26 16:28 51.33954 2.85523 36365 ft 399 kts 282°
2026-04-26 16:28 51.35016 2.76885 36367 ft 398 kts 282°
2026-04-26 16:29 51.36104 2.68140 36368 ft 398 kts 282°
2026-04-26 16:29 51.37175 2.59504 36371 ft 398 kts 282°
2026-04-26 16:30 51.38244 2.50760 36363 ft 397 kts 282°
2026-04-26 16:30 51.39295 2.42077 36361 ft 397 kts 282°
2026-04-26 16:31 51.40347 2.33386 36359 ft 397 kts 282°
2026-04-26 16:31 51.41387 2.24701 36359 ft 398 kts 282°
2026-04-26 16:32 51.42265 2.17480 36364 ft 397 kts 282°
2026-04-26 16:32 51.43500 2.07311 36362 ft 397 kts 282°
2026-04-26 16:33 51.44551 1.98628 36355 ft 397 kts 282°
2026-04-26 16:33 51.45579 1.90002 36343 ft 397 kts 281°
2026-04-26 16:34 51.46597 1.81305 36342 ft 397 kts 281°
2026-04-26 16:34 51.47602 1.72592 36340 ft 397 kts 281°
2026-04-26 16:35 51.48593 1.63876 36346 ft 397 kts 281°
2026-04-26 16:35 51.49585 1.55157 36343 ft 397 kts 281°
2026-04-26 16:36 51.50582 1.46442 36346 ft 397 kts 281°
2026-04-26 16:36 51.51569 1.37715 36352 ft 397 kts 281°
2026-04-26 16:37 51.52539 1.29003 36345 ft 397 kts 281°
2026-04-26 16:37 51.53500 1.20268 36342 ft 397 kts 281°
2026-04-26 16:38 51.54199 1.11476 36348 ft 399 kts 270°
2026-04-26 16:38 51.54079 1.02571 36349 ft 399 kts 270°
2026-04-26 16:39 51.53969 0.93674 36349 ft 399 kts 270°
2026-04-26 16:39 51.53855 0.84770 36357 ft 398 kts 270°
2026-04-26 16:40 51.53724 0.75870 36357 ft 399 kts 269°
2026-04-26 16:40 51.53592 0.66966 36354 ft 399 kts 269°
2026-04-26 16:41 51.53457 0.58055 36356 ft 399 kts 269°
2026-04-26 16:41 51.53306 0.49147 36348 ft 399 kts 269°
2026-04-26 16:42 51.53147 0.40243 36341 ft 399 kts 269°
2026-04-26 16:42 51.53068 0.31339 36339 ft 399 kts 271°
2026-04-26 16:43 51.53137 0.22425 36337 ft 399 kts 271°
2026-04-26 16:43 51.53203 0.13484 36302 ft 402 kts 271°
2026-04-26 16:44 51.53229 0.04486 36313 ft 403 kts 270°
2026-04-26 16:44 51.53229 -0.04537 36313 ft 405 kts 270°
2026-04-26 16:45 51.53217 -0.13609 36298 ft 406 kts 270°
2026-04-26 16:45 51.53205 -0.22644 36308 ft 409 kts 270°
2026-04-26 16:46 51.53189 -0.31729 36309 ft 409 kts 270°
2026-04-26 16:46 51.53167 -0.40875 36327 ft 409 kts 269°
2026-04-26 16:47 51.53142 -0.50022 36325 ft 410 kts 269°
2026-04-26 16:47 51.53107 -0.59190 36321 ft 410 kts 269°
2026-04-26 16:48 51.53060 -0.68350 36324 ft 410 kts 269°
2026-04-26 16:48 51.53009 -0.77513 36332 ft 410 kts 269°
2026-04-26 16:49 51.52950 -0.86538 36335 ft 411 kts 269°
2026-04-26 16:49 51.52880 -0.95699 36267 ft 411 kts 269°
2026-04-26 16:50 51.52844 -1.00332 35343 ft 419 kts 269°
2026-04-26 16:50 51.52807 -1.05019 34599 ft 420 kts 269°
2026-04-26 16:50 51.52768 -1.09710 33998 ft 418 kts 269°
2026-04-26 16:50 51.52729 -1.14359 33424 ft 415 kts 269°
2026-04-26 16:51 51.53010 -1.18951 32886 ft 412 kts 279°
2026-04-26 16:51 51.53541 -1.23443 32331 ft 408 kts 279°
2026-04-26 16:51 51.54075 -1.27900 31798 ft 404 kts 279°
2026-04-26 16:51 51.54602 -1.32305 31261 ft 400 kts 279°
2026-04-26 16:52 51.55123 -1.36680 30732 ft 397 kts 279°
2026-04-26 16:52 51.55297 -1.38149 30551 ft 396 kts 279°
2026-04-26 16:52 51.56141 -1.45298 29646 ft 388 kts 278°
2026-04-26 16:52 51.56636 -1.49548 29088 ft 386 kts 278°
2026-04-26 16:53 51.57124 -1.53774 28535 ft 383 kts 278°
2026-04-26 16:53 51.57607 -1.57976 27977 ft 381 kts 278°
2026-04-26 16:53 51.58086 -1.62145 27423 ft 379 kts 278°
2026-04-26 16:53 51.58565 -1.66293 26880 ft 376 kts 279°
2026-04-26 16:54 51.59035 -1.70369 26714 ft 364 kts 278°
2026-04-26 16:54 51.59488 -1.74307 26504 ft 353 kts 278°
2026-04-26 16:54 51.59857 -1.78127 26128 ft 347 kts 273°
2026-04-26 16:54 51.59982 -1.82031 25671 ft 344 kts 271°
2026-04-26 16:55 51.60064 -1.85839 25201 ft 343 kts 270°
2026-04-26 16:55 51.60139 -1.89661 24738 ft 341 kts 270°
2026-04-26 16:55 51.60212 -1.93462 24272 ft 339 kts 271°
2026-04-26 16:55 51.60281 -1.97231 23789 ft 338 kts 270°
2026-04-26 16:56 51.60444 -2.04688 22870 ft 335 kts 276°
2026-04-26 16:56 51.60855 -2.08371 22435 ft 334 kts 280°
2026-04-26 16:56 51.61331 -2.12009 22008 ft 333 kts 281°
2026-04-26 16:57 51.61606 -2.14475 21723 ft 331 kts 277°
2026-04-26 16:57 51.61990 -2.19320 21156 ft 329 kts 275°
2026-04-26 16:57 51.62290 -2.26590 20322 ft 324 kts 262°
2026-04-26 16:58 51.62094 -2.29010 20034 ft 322 kts 261°
2026-04-26 16:58 51.61880 -2.31364 19749 ft 321 kts 261°
2026-04-26 16:58 51.61138 -2.39290 18868 ft 319 kts 260°
2026-04-26 16:59 51.60807 -2.42811 18495 ft 317 kts 260°
2026-04-26 16:59 51.60160 -2.49781 17764 ft 313 kts 260°
2026-04-26 17:00 51.59304 -2.56476 17073 ft 309 kts 251°
2026-04-26 17:00 51.57943 -2.62950 16294 ft 304 kts 250°
2026-04-26 17:00 51.57251 -2.66192 15650 ft 301 kts 250°
2026-04-26 17:01 51.56570 -2.69371 15045 ft 298 kts 250°
2026-04-26 17:01 51.55911 -2.72454 14377 ft 297 kts 250°
2026-04-26 17:01 51.55229 -2.75620 13755 ft 294 kts 250°
2026-04-26 17:01 51.54564 -2.78705 13153 ft 291 kts 250°
2026-04-26 17:02 51.53913 -2.81721 12539 ft 288 kts 250°
2026-04-26 17:02 51.53179 -2.84700 11884 ft 286 kts 243°
2026-04-26 17:02 51.52240 -2.87498 11245 ft 283 kts 240°
2026-04-26 17:02 51.51277 -2.90245 10590 ft 282 kts 240°
2026-04-26 17:03 51.50313 -2.92977 9928 ft 280 kts 240°
2026-04-26 17:03 51.49362 -2.95665 9586 ft 268 kts 240°
2026-04-26 17:03 51.48472 -2.98172 9458 ft 249 kts 240°
2026-04-26 17:03 51.47574 -3.00472 9012 ft 243 kts 227°
2026-04-26 17:04 51.46302 -3.01867 8487 ft 243 kts 199°
2026-04-26 17:04 51.44663 -3.02533 7906 ft 244 kts 191°
2026-04-26 17:04 51.43006 -3.03023 7366 ft 243 kts 190°
2026-04-26 17:04 51.41348 -3.03494 6829 ft 241 kts 190°
2026-04-26 17:05 51.39694 -3.03845 6296 ft 239 kts 186°
2026-04-26 17:05 51.38045 -3.03948 5766 ft 236 kts 172°
2026-04-26 17:05 51.36611 -3.02809 5279 ft 233 kts 131°
2026-04-26 17:05 51.35995 -3.00498 4760 ft 230 kts 90°
2026-04-26 17:06 51.36458 -2.98108 4226 ft 229 kts 56°
2026-04-26 17:06 51.37293 -2.95915 3604 ft 231 kts 73°
2026-04-26 17:06 51.37457 -2.93389 3128 ft 227 kts 89°
2026-04-26 17:06 51.37516 -2.90895 2779 ft 220 kts 88°
2026-04-26 17:07 51.37604 -2.88498 2492 ft 212 kts 87°
2026-04-26 17:07 51.37699 -2.86171 2209 ft 208 kts 87°
2026-04-26 17:07 51.37791 -2.83913 1933 ft 196 kts 87°
2026-04-26 17:07 51.37874 -2.81838 1707 ft 178 kts 87°
2026-04-26 17:08 51.37950 -2.79942 1461 ft 164 kts 87°
2026-04-26 17:08 51.38020 -2.78205 1290 ft 149 kts 86°
2026-04-26 17:08 51.38083 -2.76608 1073 ft 140 kts 87°
2026-04-26 17:08 51.38142 -2.75083 885 ft 136 kts 86°
2026-04-26 17:09 51.38201 -2.73578 698 ft 135 kts 86°
2026-04-26 17:09 51.38238 -2.72596 636 ft 126 kts 89°
2026-04-26 17:09 51.38301 -2.71108 604 ft 53 kts 85°
2026-04-26 17:09 51.38319 -2.70793 608 ft 15 kts 76°
2026-04-26 17:10 51.38383 -2.70735 610 ft 8 kts 17°
2026-04-26 17:10 51.38429 -2.70713 611 ft 6 kts 17°
2026-04-26 17:10 51.38444 -2.70706 611 ft 0 kts 17°
2026-04-26 17:10 51.38463 -2.70702 611 ft 7 kts 352°
2026-04-26 17:11 51.38474 -2.70767 611 ft 5 kts 268°
2026-04-26 17:11 51.38473 -2.70804 612 ft 2 kts 266°
2026-04-26 17:11 51.38472 -2.70814 615 ft 2 kts 266°
2026-04-26 17:11 51.38470 -2.70867 614 ft 4 kts 266°
2026-04-26 17:12 51.38464 -2.71045 615 ft 10 kts 266°
2026-04-26 17:12 51.38460 -2.71150 620 ft 9 kts 266°
2026-04-26 17:13 51.38447 -2.71436 613 ft 17 kts 265°
2026-04-26 17:13 51.38441 -2.71621 612 ft 8 kts 268°
2026-04-26 17:13 51.38455 -2.71726 607 ft 1 kts 330°
2026-04-26 17:14 51.38458 -2.71727 614 ft 0 kts 338°
2026-04-26 17:14 51.38475 -2.71731 608 ft 2 kts 354°
2026-04-26 17:15 51.38491 -2.71733 614 ft 0 kts 355°
2026-04-26 17:15 51.38502 -2.71735 615 ft 2 kts 355°
2026-04-26 17:15 51.38515 -2.71736 611 ft 2 kts 359°
2026-04-26 17:16 51.38519 -2.71736 612 ft 0 kts 359°